Change the Weather History Date:

Monday, March 4, 2013

  Actual Average Record
Temperature  
Mean Temperature 33 °F -  
Max Temperature 36 °F 38 °F 65 °F (1974)
Min Temperature 30 °F 18 °F - (1998)
Degree Days  
Heating Degree Days 32    
Moisture  
Dew Point 22 °F    
Average Humidity 65    
Maximum Humidity 79    
Minimum Humidity 51    
Precipitation  
Precipitation 0.00 in - - ()
Sea Level Pressure  
Sea Level Pressure 30.30 in    
Wind  
Wind Speed 14 mph (NW)    
Max Wind Speed 25 mph    
Max Gust Speed 30 mph    
Visibility 10 miles    
Events      
Averages and records for this station are not official NWS values.
T = Trace of Precipitation, MM = Missing Value Source: NWS Daily Summary

Daily Weather History Graph

Daily Weather History Graph

Search for Another Location

Airport or City:

Trip Planner

Search our weather history database for the weather conditions in past years. The results will help you decide how hot, cold, wet, or windy it might be!

Date:

Astronomy

Mar. 04, 2013 Rise Set
Actual Time 6:16 AM EST 5:39 PM EST
Civil Twilight 5:48 AM EST 6:07 PM EST
Nautical Twilight 5:15 AM EST 6:40 PM EST
Astronomical Twilight 4:42 AM EST 7:13 PM EST
Moon 12:28 AM EST 10:12 AM EST
Length of Visible Light 12h 19m
Length of Day
11h 23m
Waning Gibbous, 52% of the Moon is Illuminated
Mar 4
Waning Gibbous
Mar 4
Last Quarter
Mar 11
New
Mar 19
First Quarter
Mar 27
Full

Hourly Weather History & Observations

Time (EST) Temp. Windchill Dew Point Humidity Pressure Visibility Wind Dir Wind Speed Gust Speed Precip Events Conditions
12:51 AM 32.0 °F 23.6 °F 23.0 °F 69% 30.36 in 10.0 mi WNW 10.4 mph - N/A   Clear
1:51 AM 32.0 °F 24.8 °F 23.0 °F 69% 30.36 in 10.0 mi WNW 8.1 mph - N/A   Mostly Cloudy
2:25 AM 32.0 °F 23.6 °F 21.2 °F 64% 29.61 in 10.0 mi NW 10.4 mph - N/A   Overcast
2:34 AM 32.0 °F 22.1 °F 21.2 °F 64% 29.61 in 10.0 mi NW 13.8 mph 21.9 mph N/A   Overcast
2:51 AM 32.0 °F 23.0 °F 22.1 °F 67% 30.35 in 10.0 mi NW 11.5 mph 18.4 mph N/A   Overcast
4:51 AM 30.0 °F 21.7 °F 21.0 °F 69% 30.37 in 10.0 mi NW 9.2 mph - N/A   Partly Cloudy
5:11 AM 30.2 °F 21.3 °F 21.2 °F 69% 29.62 in 10.0 mi WNW 10.4 mph - N/A   Mostly Cloudy
5:51 AM 30.0 °F 19.5 °F 20.1 °F 67% 30.38 in 10.0 mi NW 13.8 mph 19.6 mph N/A   Mostly Cloudy
7:51 AM 30.0 °F 18.7 °F 18.1 °F 61% 30.39 in 10.0 mi WNW 16.1 mph 24.2 mph N/A   Scattered Clouds
8:51 AM 32.0 °F 20.1 °F 19.0 °F 59% 30.37 in 10.0 mi NNW 19.6 mph 26.5 mph N/A   Scattered Clouds
9:51 AM 34.9 °F 22.5 °F 20.1 °F 55% 30.36 in 10.0 mi NNW 25.3 mph 29.9 mph N/A   Scattered Clouds
10:51 AM 34.0 °F 24.2 °F 20.1 °F 57% 30.37 in 10.0 mi North 15.0 mph 25.3 mph N/A   Scattered Clouds
11:51 AM 36.0 °F 24.4 °F 21.0 °F 55% 30.36 in 10.0 mi NNW 23.0 mph 29.9 mph N/A   Scattered Clouds
12:51 PM 36.9 °F 26.8 °F 20.1 °F 51% 30.35 in 10.0 mi NW 18.4 mph 24.2 mph N/A   Partly Cloudy
3:51 PM 36.9 °F 27.5 °F 24.1 °F 60% 30.36 in 10.0 mi NW 16.1 mph 24.2 mph N/A   Partly Cloudy
4:51 PM 34.9 °F 24.6 °F 25.2 °F 68% 30.38 in 10.0 mi NW 17.3 mph 24.2 mph N/A   Clear
5:51 PM 32.9 °F 22.0 °F 27.1 °F 79% 30.41 in 10.0 mi NW 17.3 mph - N/A   Clear
6:51 PM 32.9 °F 22.0 °F 25.2 °F 73% 30.44 in 10.0 mi NNW 17.3 mph 25.3 mph N/A   Partly Cloudy
7:51 PM 32.9 °F 23.7 °F 24.1 °F 70% 30.45 in 10.0 mi NNW 12.7 mph 19.6 mph N/A   Overcast
8:51 PM 32.9 °F 21.6 °F 22.1 °F 65% 30.47 in 10.0 mi NNW 18.4 mph 24.2 mph N/A   Overcast
9:51 PM 32.0 °F 20.1 °F 22.1 °F 67% 30.49 in 10.0 mi NNW 19.6 mph 27.6 mph N/A   Overcast
10:51 PM 31.1 °F 20.9 °F 21.0 °F 66% 30.51 in 10.0 mi NW 13.8 mph - N/A   Clear
11:51 PM 30.0 °F 20.0 °F 21.0 °F 69% 30.51 in 10.0 mi NW 12.7 mph - N/A   Scattered Clouds